Simultaneous Nadir Overpasses (SNOs) Predictions

Prediction of SNOs between METOP-A and NOAA-19 Satellite Orbit:

Table of predicted SNOs for the next 14.0 days since TLE Epoch: 11/11/2016
Index Date (METOP-A) Time (METOP-A) Lat,Lon (METOP-A) SZA (METOP-A ) Date (NOAA-19) Time (NOAA-19) Lat,Lon (NOAA-19) SZA (NOAA-19 ) Distance(km) Time Diff (sec)
1 11/16/2016 21:42:09 -76.79, 37.31 84.20 11/16/2016 21:40:57 -76.80, 35.90 84.23 35.69 72
2 11/16/2016 22:32:52 76.60,-156.08 95.61 11/16/2016 22:31:58 76.60,-156.05 95.60 0.80 54
3 11/16/2016 23:23:34 -76.59, 11.21 84.40 11/16/2016 23:22:53 -76.59, 11.25 84.40 1.19 41
4 11/17/2016 00:14:14 76.58, 178.50 95.61 11/17/2016 00:13:59 76.56, 178.59 95.59 3.06 15
5 11/17/2016 01:04:56 -76.57, -14.20 84.40 11/17/2016 01:04:55 -76.60, -14.28 84.38 3.22 1
6
